Weather reports worldwide

Advertisment
Chambery/Aix-Les-Bains, France (7491): temperature & dewpoint: 20.09.2018 17:00:00 - 26.09.2018 17:00:00 (CEST)Chambery/Aix-Les-Bains, France (7491): temperature 5cm: 20.09.2018 17:00:00 - 26.09.2018 17:00:00 (CEST)Chambery/Aix-Les-Bains, France (7491): temperature -20cm & temperature -100cm: 20.09.2018 17:00:00 - 26.09.2018 17:00:00 (CEST)Chambery/Aix-Les-Bains, France (7491): wind speed & gusts: 20.09.2018 17:00:00 - 26.09.2018 17:00:00 (CEST)Chambery/Aix-Les-Bains, France (7491): wind direction: 20.09.2018 17:00:00 - 26.09.2018 17:00:00 (CEST)Chambery/Aix-Les-Bains, France (7491): reduced air pressure: 20.09.2018 17:00:00 - 26.09.2018 17:00:00 (CEST)Chambery/Aix-Les-Bains, France (7491): visibility: 20.09.2018 17:00:00 - 26.09.2018 17:00:00 (CEST)Chambery/Aix-Les-Bains, France (7491): sunshine duration: 20.09.2018 17:00:00 - 26.09.2018 17:00:00 (CEST)Chambery/Aix-Les-Bains, France (7491): precipitation: 20.09.2018 17:00:00 - 26.09.2018 17:00:00 (CEST)
Date & Time tt [°C] td [°C] tt 5cm [°C] tt -20cm [°C] tt -100cm [°C] ff [km/h] ff [kn] fx [km/h] fx [kn] dd ppp [hPa] vv [km] sd [min] rr [mm]
26.09.2018 17:00:00 23,3 10,7 20,8 17,9 19,1 7 4 11 6 N 1030,6 18 60 0,0
26.09.2018 16:00:00 22,4 10,5 21,3 17,9 19,2 8 4 14 8 N 1031,0 19 60 0,0
26.09.2018 15:00:00 21,7 9,9 21,0 17,8 19,2 8 4 14 7 N 1032,1 17 60 0,0
26.09.2018 14:00:00 20,6 8,6 19,6 17,8 19,2 6 4 14 8 NNW 1032,9 17 60 0,0
26.09.2018 13:00:00 18,9 8,2 17,6 17,8 19,2 5 3 14 7 NNW 1033,9 15 60 0,0
26.09.2018 12:00:00 16,7 7,3 15,6 17,8 19,2 6 3 14 8 N 1034,9 19 60 0,0
26.09.2018 11:00:00 14,5 7,3 13,9 17,9 19,2 8 4 14 7 N 1035,4 19 60 0,0
26.09.2018 10:00:00 13,5 6,6 11,7 17,9 19,2 5 3 14 8 N 1035,4 19 60 0,0
26.09.2018 09:00:00 9,9 6,8 9,6 18,0 19,2 3 2 5 3 SSE 1035,7 17 28 0,0
26.09.2018 08:00:00 6,6 4,9 8,5 18,1 19,2 2 1 10 5 ESE 1034,7 19 0 0,0
26.09.2018 07:00:00 6,1 4,6 8,8 18,2 19,2 6 3 9 5 SSE 1034,4 19 0 0,0
26.09.2018 06:00:00 7,0 5,3 9,4 18,2 19,2 4 2 6 3 SSE 1034,0 20 0 0,0
26.09.2018 05:00:00 8,5 5,4 11,0 18,2 19,2 3 2 23 13 N 1033,8 20 0 0,0
26.09.2018 04:00:00 11,7 5,6 11,1 18,3 19,2 14 7 29 16 N 1033,6 57 0 0,0
26.09.2018 03:00:00 11,2 5,3 11,1 18,3 19,2 8 4 22 12 NNW 1033,4 20 0 0,0
26.09.2018 02:00:00 12,9 5,3 12,0 18,4 19,2 21 11 30 16 N 1033,1 20 0 0,0
26.09.2018 01:00:00 13,6 5,5 12,3 18,4 19,2 23 13 34 18 N 1032,7 58 0 0,0
26.09.2018 00:00:00 13,9 5,8 12,6 18,4 19,2 22 12 33 18 N 1032,1 59 0 0,0
25.09.2018 23:00:00 14,7 6,3 13,2 18,5 19,3 24 13 36 19 N 1031,4 59 0 0,0
25.09.2018 22:00:00 15,5 5,4 13,9 18,4 19,2 21 11 40 21 NNW 1031,0 57 0 0,0
25.09.2018 21:00:00 16,1 6,0 14,2 18,5 19,3 22 12 39 21 NNW 1030,5 20 0 0,0
25.09.2018 20:00:00 16,6 6,1 14,2 18,4 19,2 21 11 34 18 N 1030,0 20 0 0,0
25.09.2018 19:00:00 17,1 6,3 15,5 18,4 19,3 10 5 27 14 NNW 1029,5 60 2 0,0
25.09.2018 18:00:00 19,3 5,7 18,0 18,3 19,3 12 6 28 15 NW 1029,0 20 60 0,0
25.09.2018 17:00:00 20,1 6,1 18,4 18,3 19,3 17 9 30 16 NNW 1029,2 20 60 0,0
25.09.2018 16:00:00 20,0 6,3 18,8 18,2 19,2 18 10 30 16 N 1029,5 19 60 0,0
25.09.2018 15:00:00 19,1 4,8 18,7 18,2 19,3 16 9 26 14 N 1030,0 19 60 0,0
25.09.2018 14:00:00 18,0 6,2 18,0 18,2 19,3 11 6 23 12 N 1030,8 19 60 0,0
25.09.2018 13:00:00 16,8 6,0 16,4 18,2 19,3 9 5 37 20 NNW 1031,4 18 60 0,0
25.09.2018 12:00:00 15,5 6,2 15,1 18,3 19,3 19 10 32 18 NNE 1031,8 18 60 0,0
25.09.2018 11:00:00 14,4 6,2 13,2 18,3 19,2 22 12 34 18 N 1032,1 18 54 0,0
25.09.2018 10:00:00 13,0 5,6 11,5 18,4 19,3 18 10 36 19 NNW 1032,2 20 60 0,0
25.09.2018 09:00:00 11,4 4,4 10,7 18,4 19,3 23 12 35 19 NNW 1031,9 19 29 0,0
25.09.2018 08:00:00 10,7 4,4 10,7 18,6 19,3 22 12 35 19 N 1031,6 20 0 0,0
25.09.2018 07:00:00 10,8 4,3 10,8 18,6 19,3 21 11 38 21 N 1031,2 60 0 0,0
25.09.2018 06:00:00 11,1 3,6 10,9 18,7 19,3 19 10 39 21 NNW 1031,1 20 0 0,0
25.09.2018 05:00:00 11,5 4,2 11,2 18,8 19,3 24 13 34 19 N 1030,9 60 0 0,0
25.09.2018 04:00:00 11,6 4,1 11,3 18,8 19,3 18 10 35 19 N 1030,8 60 0 0,0
25.09.2018 03:00:00 12,1 3,6 11,5 18,9 19,3 18 10 36 20 NNW 1030,6 60 0 0,0
25.09.2018 02:00:00 12,4 3,9 11,6 19,0 19,3 23 12 38 20 NNW 1030,5 60 0 0,0
25.09.2018 01:00:00 12,6 4,0 11,6 19,0 19,3 21 11 46 25 NNW 1030,3 60 0 0,0
25.09.2018 00:00:00 13,0 3,9 11,6 19,1 19,3 25 14 46 25 N 1029,8 60 0 0,0
24.09.2018 23:00:00 13,7 4,3 12,0 19,1 19,3 28 15 48 26 N 1029,0 60 0 0,0
24.09.2018 22:00:00 14,3 5,1 12,4 19,2 19,3 28 15 48 26 N 1028,7 60 0 0,0
24.09.2018 21:00:00 14,5 4,8 12,7 19,3 19,3 31 17 51 28 N 1028,5 60 0 0,0
24.09.2018 20:00:00 15,3 4,9 13,1 19,3 19,3 30 16 62 33 N 1027,9 60 0 0,0
24.09.2018 19:00:00 16,0 6,1 14,1 19,3 19,3 30 16 53 29 N 1027,2 60 0 0,0
24.09.2018 18:00:00 16,5 7,4 14,7 19,4 19,3 30 16 50 27 N 1027,0 20 0 0,0
24.09.2018 17:00:00 16,8 7,7 15,3 19,4 19,3 27 15 51 27 N 1026,9 20 0 0,0
24.09.2018 16:00:00 17,2 7,5 15,7 19,5 19,3 30 16 46 25 NNW 1026,8 19 1 0,0
24.09.2018 15:00:00 17,5 7,8 15,1 19,5 19,3 29 15 46 25 N 1027,1 19 6 0,0
24.09.2018 14:00:00 16,8 7,4 14,5 19,6 19,3 29 16 50 27 N 1026,9 48 0 0,0
24.09.2018 13:00:00 16,2 8,4 14,5 19,6 19,3 30 16 50 27 N 1027,1 57 0 0,0
24.09.2018 12:00:00 16,0 8,5 14,8 19,7 19,3 25 14 44 24 NNW 1026,7 58 17 0,0
24.09.2018 11:00:00 16,7 8,1 14,3 19,7 19,3 26 14 51 28 N 1026,8 16 60 0,0
24.09.2018 10:00:00 15,5 8,5 12,7 19,8 19,3 27 15 42 23 N 1026,8 14 60 0,0
24.09.2018 09:00:00 14,0 8,4 12,0 19,9 19,3 25 13 35 19 NNE 1026,5 20 29 0,0
24.09.2018 08:00:00 13,4 8,9 12,4 19,9 19,3 22 12 32 18 N 1026,1 60 0 0,0
24.09.2018 07:00:00 13,6 9,4 12,6 20,0 19,3 18 10 28 15 N 1025,9 60 0 0,0
24.09.2018 06:00:00 14,2 9,2 13,0 20,1 19,3 21 11 40 21 N 1025,7 60 0 0,0
24.09.2018 05:00:00 14,8 9,4 13,8 20,1 19,3 22 12 37 20 N 1025,2 60 0 0,0
24.09.2018 04:00:00 16,0 11,2 14,6 20,1 19,3 26 14 42 23 N 1024,7 60 0 0,0
24.09.2018 03:00:00 16,3 12,1 15,7 20,2 19,3 28 15 44 24 N 1024,3 19 0 0,0
24.09.2018 02:00:00 16,2 13,7 15,0 20,2 19,3 22 12 53 29 N 1023,3 60 0 1,4
24.09.2018 01:00:00 16,3 13,2 15,3 20,2 19,3 47 25 74 40 N 1022,7 2,8 0 1,4
24.09.2018 00:00:00 21,6 17,8 19,5 20,2 19,3 11 6 20 11 ESE 1018,7 60 0 0,0
23.09.2018 23:00:00 21,0 18,4 19,7 20,1 19,3 8 5 32 18 WNW 1018,6 60 0 0,0
23.09.2018 22:00:00 20,6 18,9 19,5 20,1 19,3 10 5 21 12 SSW 1018,9 60 0 0,0
23.09.2018 21:00:00 20,5 18,6 19,4 20,1 19,3 10 6 62 33 SW 1018,7 20 0 5,2
23.09.2018 20:00:00 23,6 16,9 21,0 20,0 19,3 9 5 22 12 WSW 1017,2 4,3 0 0,8
23.09.2018 19:00:00 25,9 17,3 23,0 20,0 19,4 3 2 9 5 SSW 1016,3 15 0 0,0
23.09.2018 18:00:00 28,8 16,0 24,9 19,8 19,3 5 3 14 8 N 1016,4 14 17 0,0
23.09.2018 17:00:00 29,3 15,8 26,4 19,8 19,3 10 6 18 10 NNE 1016,5 20 57 0,0
23.09.2018 16:00:00 28,9 15,4 26,0 19,7 19,3 4 2 15 8 NNE 1016,6 19 60 0,0
23.09.2018 15:00:00 27,1 15,1 25,4 19,7 19,3 8 5 16 8 N 1017,6 19 60 0,0
23.09.2018 14:00:00 25,9 14,7 23,9 19,6 19,3 10 6 17 9 N 1018,6 19 60 0,0
23.09.2018 13:00:00 24,5 13,7 22,3 19,6 19,3 10 5 17 9 N 1019,8 18 60 0,0
23.09.2018 12:00:00 24,3 14,1 20,3 19,6 19,3 6 3 14 8 N 1020,5 11 49 0,0
23.09.2018 11:00:00 21,8 13,2 18,3 19,6 19,3 4 2 11 6 SSW 1021,6 15 19 0,0
23.09.2018 10:00:00 19,2 12,7 16,9 19,6 19,3 8 4 15 8 SSE 1022,1 14 0 0,0
23.09.2018 09:00:00 17,3 13,2 16,3 19,7 19,4 9 5 11 6 SSE 1022,2 19 0 0,0
23.09.2018 08:00:00 16,0 12,7 15,5 19,7 19,3 4 2 8 5 E 1022,4 16 0 0,0
23.09.2018 07:00:00 15,0 11,9 15,6 19,7 19,3 3 2 13 7 NE 1022,0 60 0 0,0
23.09.2018 06:00:00 16,1 11,7 16,6 19,7 19,3 6 4 11 6 S 1022,2 20 0 0,0
23.09.2018 05:00:00 16,4 12,4 16,7 19,7 19,4 3 1 7 4 S 1022,8 20 0 0,0
23.09.2018 04:00:00 16,8 12,3 17,0 19,7 19,3 5 3 7 4 W 1022,9 59 0 0,0
23.09.2018 03:00:00 17,0 12,1 17,0 19,8 19,3 2 1 9 5 SE 1023,4 60 0 0,0
23.09.2018 02:00:00 16,8 13,1 17,2 19,8 19,3 4 2 5 3 SSW 1023,6 53 0 0,0
23.09.2018 01:00:00 17,2 13,5 17,0 19,8 19,3 3 2 5 3 E 1023,6 20 0 0,0
23.09.2018 00:00:00 16,9 12,0 16,9 19,8 19,4 4 2 8 4 WSW 1023,4 48 0 0,0
22.09.2018 23:00:00 17,2 12,5 16,6 19,8 19,4 4 2 8 5 E 1023,2 52 0 0,0
22.09.2018 22:00:00 16,5 12,5 16,2 19,8 19,3 5 3 8 5 SSW 1022,7 58 0 0,0
22.09.2018 21:00:00 15,8 11,8 16,0 19,8 19,3 4 2 5 3 S 1022,4 60 0 0,0
22.09.2018 20:00:00 16,2 11,8 16,3 19,8 19,4 2 1 9 5 SW 1021,7 0,5 0 0,0
22.09.2018 19:00:00 19,3 11,3 18,2 19,7 19,3 3 2 13 7 WSW 1021,3 15 5 0,0
22.09.2018 18:00:00 22,4 8,5 19,6 19,7 19,3 5 3 14 8 NW 1021,1 19 53 0,0
22.09.2018 17:00:00 21,8 9,3 19,5 19,6 19,3 9 5 13 7 N 1021,3 19 56 0,0
22.09.2018 16:00:00 21,7 8,2 19,2 19,6 19,4 4 2 16 9 NNW 1021,7 16 54 0,0
22.09.2018 15:00:00 20,8 9,1 18,6 19,6 19,4 7 4 16 9 N 1022,2 19 60 0,0
22.09.2018 14:00:00 19,6 10,0 17,4 19,6 19,4 8 4 17 9 N 1023,1 18 60 0,0
22.09.2018 13:00:00 18,3 10,4 16,3 19,6 19,3 7 4 18 10 N 1023,6 19 56 0,0
22.09.2018 12:00:00 16,9 9,3 15,4 19,7 19,4 10 5 17 9 NNW 1024,2 17 40 0,0
22.09.2018 11:00:00 15,5 9,6 14,8 19,7 19,3 9 5 19 10 N 1025,0 19 41 0,0
22.09.2018 10:00:00 14,7 10,1 14,3 19,8 19,4 11 6 20 11 N 1024,8 19 50 0,0
22.09.2018 09:00:00 12,5 10,2 12,3 19,8 19,3 7 4 10 6 SE 1024,8 17 23 0,0
22.09.2018 08:00:00 9,8 8,7 12,0 19,9 19,4 6 4 11 6 SE 1024,9 20 0 0,0
22.09.2018 07:00:00 9,9 9,1 11,7 20,0 19,4 5 3 10 5 SSW 1024,6 19 0 0,0
22.09.2018 06:00:00 11,0 9,6 12,8 20,0 19,3 4 2 13 7 NW 1024,1 20 0 0,0
22.09.2018 05:00:00 12,5 10,6 12,8 20,1 19,4 5 3 24 13 WNW 1024,4 57 0 0,0
22.09.2018 04:00:00 13,5 10,3 12,7 20,1 19,4 3 2 24 13 S 1023,8 56 0 0,0
22.09.2018 03:00:00 14,1 12,0 15,2 20,1 19,4 5 3 14 8 ENE 1023,6 60 0 0,0
22.09.2018 02:00:00 14,1 12,3 14,3 20,1 19,3 10 5 29 15 SE 1023,6 60 0 0,0
22.09.2018 01:00:00 14,7 12,6 14,5 20,2 19,4 16 9 34 18 NNE 1023,6 18 0 0,8
22.09.2018 00:00:00 14,5 13,9 14,5 20,2 19,4 3 2 22 12 S 1023,2 7 0 1,0
21.09.2018 23:00:00 15,1 13,6 14,8 20,2 19,4 13 7 30 16 NE 1023,3 3,0 0 0,8
21.09.2018 22:00:00 18,4 13,9 18,0 20,2 19,4 11 6 27 14 S 1021,7 51 0 0,0
21.09.2018 21:00:00 19,4 14,2 18,8 20,2 19,4 13 7 27 14 SE 1020,6 20 0 0,0
21.09.2018 20:00:00 21,8 14,2 18,8 20,2 19,4 16 8 24 13 NE 1018,7 20 0 0,0
21.09.2018 19:00:00 22,1 16,6 20,1 20,0 19,3 7 4 29 16 SW 1016,7 19 0 0,0
21.09.2018 18:00:00 23,3 16,6 21,0 20,0 19,4 8 4 26 14 SSE 1015,9 15 0 0,4
21.09.2018 17:00:00 26,3 13,1 22,9 20,0 19,4 4 2 37 20 SE 1014,6 18 0 0,2
21.09.2018 16:00:00 29,8 12,7 28,4 19,9 19,4 10 6 35 19 SSE 1013,6 18 6 0,0
21.09.2018 15:00:00 30,8 11,7 26,9 19,9 19,3 20 11 34 18 S 1013,6 18 42 0,0
21.09.2018 14:00:00 27,1 16,4 26,9 19,9 19,4 6 3 36 19 NE 1014,7 18 10 0,0
21.09.2018 13:00:00 28,8 13,5 26,4 19,8 19,3 10 5 29 16 SSE 1014,8 19 14 0,0
21.09.2018 12:00:00 27,4 14,1 25,6 19,8 19,3 21 11 35 19 S 1015,2 17 60 0,0
21.09.2018 11:00:00 25,4 14,2 19,7 19,9 19,3 20 11 32 18 S 1016,1 12 51 0,0
21.09.2018 10:00:00 21,7 13,6 18,4 20,0 19,4 19 11 38 20 SSW 1016,5 19 36 0,0
21.09.2018 09:00:00 21,3 14,2 15,6 20,0 19,4 13 7 33 18 SSW 1016,3 17 31 0,0
21.09.2018 08:00:00 18,0 13,5 13,6 20,0 19,4 11 6 21 12 SSW 1016,3 18 0 0,0
21.09.2018 07:00:00 14,5 13,2 13,5 20,1 19,4 5 3 8 5 SSW 1016,3 14 0 0,0
21.09.2018 06:00:00 14,4 12,9 13,7 20,1 19,4 6 3 9 5 SSE 1016,5 14 0 0,0
21.09.2018 05:00:00 13,9 12,6 13,7 20,2 19,4 3 2 8 4 E 1016,9 15 0 0,0
21.09.2018 04:00:00 14,6 13,3 13,8 20,3 19,4 4 2 5 3 S 1017,0 13 0 0,0
21.09.2018 03:00:00 15,4 13,6 14,3 20,3 19,4 0 0 10 5 N 1017,1 16 0 0,0
21.09.2018 02:00:00 15,3 13,7 14,4 20,4 19,3 5 3 8 4 SSE 1017,1 15 0 0,0
21.09.2018 01:00:00 15,0 13,2 14,4 20,4 19,4 4 2 6 3 SSE 1017,2 15 0 0,0
21.09.2018 00:00:00 15,4 12,9 15,0 20,4 19,4 2 1 6 3 SSW 1017,2 17 0 0,0
20.09.2018 23:00:00 16,8 14,1 15,7 20,4 19,4 3 2 6 3 SSE 1016,8 17 0 0,0
20.09.2018 22:00:00 18,2 14,5 16,8 20,4 19,4 4 2 8 4 SSE 1016,6 18 0 0,0
20.09.2018 21:00:00 19,6 14,6 17,5 20,4 19,4 3 2 6 3 SSE 1016,2 20 0 0,0
20.09.2018 20:00:00 20,8 15,1 19,3 20,3 19,4 4 2 7 4 S 1015,8 0,8 0 0,0
20.09.2018 19:00:00 23,9 15,9 22,2 20,2 19,4 0 0 8 5 N 1015,4 10 10 0,0
20.09.2018 18:00:00 30,4 14,5 26,2 20,1 19,4 6 3 10 6 NW 1014,8 19 60 0,0
20.09.2018 17:00:00 30,8 12,2 27,4 20,1 19,4 5 3 11 6 NNW 1015,3 19 60 0,0

tt = temperature
td = dewpoint
tt 5cm = temperature 5cm
tt -20cm = temperature -20cm
tt -100cm = temperature -100cm
ff = wind speed
fx = gusts
dd = wind direction
ppp = reduced air pressure
vv = visibility
sd = sunshine duration
rr = precipitation

Next stations